This is the latest recevied weather packets stored in our database for station/object W0AVQ. If no packets are shown the sender has not sent any weather packets the latest 10 day(s).
| Time | Temp. | Humidity | Pressure | Rain* | Wind** | Luminosity | Snow |
|---|---|---|---|---|---|---|---|
| 1777748700 | 16.67° C | 53% | 1019.7 hPa | 0 mm | - | 250 W/m² | - |
| 1777748396 | 16.11° C | 53% | 1019.7 hPa | 0 mm | - | 239 W/m² | - |
| 1777748092 | 16.11° C | 55% | 1019.6 hPa | 0 mm | - | 173 W/m² | - |
| 1777747789 | 16.11° C | 53% | 1019.5 hPa | 0 mm | - | 134 W/m² | - |
| 1777747484 | 16.67° C | 47% | 1019.4 hPa | 0 mm | - | 134 W/m² | - |
| 1777747181 | 17.22° C | 46% | 1019.3 hPa | 0 mm | - | 177 W/m² | - |
| 1777746877 | 18.33° C | 48% | 1019.4 hPa | 0 mm | - | 216 W/m² | - |
| 1777746572 | 17.78° C | 49% | 1019.2 hPa | 0 mm | - | 263 W/m² | - |
| 1777746268 | 17.78° C | 48% | 1019.5 hPa | 0 mm | - | 189 W/m² | - |
| 1777745964 | 18.33° C | 45% | 1019.4 hPa | 0 mm | - | 216 W/m² | - |
| 1777745663 | 17.22° C | 48% | 1019.4 hPa | 0 mm | - | 225 W/m² | - |
| 1777745361 | 17.78° C | 46% | 1019.2 hPa | 0 mm | - | 199 W/m² | - |
| 1777745058 | 17.78° C | 47% | 1019.3 hPa | 0 mm | - | 206 W/m² | - |
| 1777744754 | 18.89° C | 42% | 1019.2 hPa | 0 mm | - | 196 W/m² | - |
| 1777744449 | 17.22° C | 44% | 1019.2 hPa | 0 mm | - | 174 W/m² | - |
| 1777744145 | 17.78° C | 47% | 1019.2 hPa | 0 mm | - | 156 W/m² | - |
| 1777743842 | 17.22° C | 49% | 1019.4 hPa | 0 mm | - | 122 W/m² | - |
| 1777743539 | 16.67° C | 53% | 1019.5 hPa | 0 mm | - | 105 W/m² | - |
| 1777743236 | 17.78° C | 51% | 1019.4 hPa | 0 mm | - | 108 W/m² | - |
| 1777742935 | 17.22° C | 46% | 1019.4 hPa | 0 mm | - | 156 W/m² | - |
| 1777742631 | 17.22° C | 51% | 1019.5 hPa | 0 mm | - | 184 W/m² | - |
| 1777742326 | 17.78° C | 54% | 1019.6 hPa | 0 mm | - | 129 W/m² | - |
| 1777742023 | 17.22° C | 54% | 1019.4 hPa | 0 mm | - | 172 W/m² | - |
| 1777741720 | 16.67° C | 53% | 1019.5 hPa | 0 mm | - | 198 W/m² | - |
| 1777741417 | 17.22° C | 52% | 1019.4 hPa | 0 mm | - | 135 W/m² | - |
* Rain latest hour (hover to see other rain measurements)
** Current wind speed in m/s (hover to see current wind gust speed)